Location: Holyhead Bay
(53.3667°N, 4.6667°W)
Time: 19:46:14
(UTC+00:00)

CZ-4B R/B - Pass Details

Date: 24 November 2020
Orbit: 390 x 458 km, 97.6° (Epoch: 16 January)

Event Time Altitude Azimuth Distance (km) Brightness Sun altitude
Exits shadow 17:19:53 15° 75° (ENE) 1,170 2.8 -10.0°
Maximum altitude 17:20:38 16° 93° (E) 1,121 2.9 -10.1°
Drops below altitude 10° 17:22:41 10° 135° (SE) 1,444 3.7 -10.4°
Sets 17:25:11 0° 157° (SSE) 2,305 5.0 -10.7°
